Year,Month,Day,Hour,Minute,Value (Times are PST for temperature in C)
2016,08,13,00,00,21.80
2016,08,13,00,01,21.80
2016,08,13,00,02,21.80
2016,08,13,00,03,21.80
2016,08,13,00,04,21.80
2016,08,13,00,05,21.70
2016,08,13,00,06,21.70
2016,08,13,00,07,21.70
2016,08,13,00,08,21.60
2016,08,13,00,09,21.60
2016,08,13,00,10,21.60
2016,08,13,00,11,21.50
2016,08,13,00,12,21.50
2016,08,13,00,13,21.50
2016,08,13,00,14,21.40
2016,08,13,00,15,21.50
2016,08,13,00,16,21.50
2016,08,13,00,17,21.50
2016,08,13,00,18,21.50
2016,08,13,00,19,21.50
2016,08,13,00,20,21.50
2016,08,13,00,21,21.50
2016,08,13,00,22,21.50
2016,08,13,00,23,21.50
2016,08,13,00,24,21.40
2016,08,13,00,25,21.40
2016,08,13,00,26,21.40
2016,08,13,00,27,21.40
2016,08,13,00,28,21.40
2016,08,13,00,29,21.50
2016,08,13,00,30,21.50
2016,08,13,00,31,21.50
2016,08,13,00,32,21.50
2016,08,13,00,33,21.40
2016,08,13,00,34,21.40
2016,08,13,00,35,21.50
2016,08,13,00,36,21.50
2016,08,13,00,37,21.50
2016,08,13,00,38,21.50
2016,08,13,00,39,21.60
2016,08,13,00,40,21.60
2016,08,13,00,41,21.60
2016,08,13,00,42,21.60
2016,08,13,00,43,21.50
2016,08,13,00,44,21.50
2016,08,13,00,45,21.50
2016,08,13,00,46,21.50
2016,08,13,00,47,21.50
2016,08,13,00,48,21.50
2016,08,13,00,49,21.50
2016,08,13,00,50,21.50
2016,08,13,00,51,21.50
2016,08,13,00,52,21.40
2016,08,13,00,53,21.40
2016,08,13,00,54,21.40
2016,08,13,00,55,21.40
2016,08,13,00,56,21.40
2016,08,13,00,57,21.30
2016,08,13,00,58,21.30
2016,08,13,00,59,21.30
2016,08,13,01,00,21.30
2016,08,13,01,01,21.30
2016,08,13,01,02,21.30
2016,08,13,01,03,21.30
2016,08,13,01,04,21.30
2016,08,13,01,05,21.30
2016,08,13,01,06,21.30
2016,08,13,01,07,21.30
2016,08,13,01,08,21.30
2016,08,13,01,09,21.30
2016,08,13,01,10,21.20
2016,08,13,01,11,21.20
2016,08,13,01,12,21.20
2016,08,13,01,13,21.20
2016,08,13,01,14,21.20
2016,08,13,01,15,21.20
2016,08,13,01,16,21.20
2016,08,13,01,17,21.20
2016,08,13,01,18,21.20
2016,08,13,01,19,21.20
2016,08,13,01,20,21.10
2016,08,13,01,21,21.10
2016,08,13,01,22,21.10
2016,08,13,01,23,21.10
2016,08,13,01,24,21.00
2016,08,13,01,25,21.00
2016,08,13,01,26,21.00
2016,08,13,01,27,21.00
2016,08,13,01,28,21.00
2016,08,13,01,29,20.90
2016,08,13,01,30,20.90
2016,08,13,01,31,20.90
2016,08,13,01,32,20.90
2016,08,13,01,33,20.90
2016,08,13,01,34,20.90
2016,08,13,01,35,20.90
2016,08,13,01,36,20.90
2016,08,13,01,37,20.90
2016,08,13,01,38,20.90
2016,08,13,01,39,21.00
2016,08,13,01,40,21.00
2016,08,13,01,41,21.00
2016,08,13,01,42,21.00
2016,08,13,01,43,21.00
2016,08,13,01,44,21.00
2016,08,13,01,45,20.90
2016,08,13,01,46,20.90
2016,08,13,01,47,20.90
2016,08,13,01,48,20.80
2016,08,13,01,49,20.80
2016,08,13,01,50,20.80
2016,08,13,01,51,20.80
2016,08,13,01,52,20.80
2016,08,13,01,53,20.80
2016,08,13,01,54,20.80
2016,08,13,01,55,20.80
2016,08,13,01,56,20.80
2016,08,13,01,57,20.80
2016,08,13,01,58,20.80
2016,08,13,01,59,20.80
2016,08,13,02,00,20.80
2016,08,13,02,01,20.80
2016,08,13,02,02,20.80
2016,08,13,02,03,20.80
2016,08,13,02,04,20.80
2016,08,13,02,05,20.70
2016,08,13,02,06,20.70
2016,08,13,02,07,20.70
2016,08,13,02,08,20.70
2016,08,13,02,09,20.70
2016,08,13,02,10,20.70
2016,08,13,02,11,20.70
2016,08,13,02,12,20.60
2016,08,13,02,13,20.60
2016,08,13,02,14,20.60
2016,08,13,02,15,20.60
2016,08,13,02,16,20.60
2016,08,13,02,17,20.50
2016,08,13,02,18,20.50
2016,08,13,02,19,20.50
2016,08,13,02,20,20.50
2016,08,13,02,21,20.50
2016,08,13,02,22,20.50
2016,08,13,02,23,20.50
2016,08,13,02,24,20.50
2016,08,13,02,25,20.50
2016,08,13,02,26,20.50
2016,08,13,02,27,20.40
2016,08,13,02,28,20.40
2016,08,13,02,29,20.40
2016,08,13,02,30,20.40
2016,08,13,02,31,20.40
2016,08,13,02,32,20.40
2016,08,13,02,33,20.40
2016,08,13,02,34,20.40
2016,08,13,02,35,20.30
2016,08,13,02,36,20.30
2016,08,13,02,37,20.30
2016,08,13,02,38,20.30
2016,08,13,02,39,20.30
2016,08,13,02,40,20.30
2016,08,13,02,41,20.30
2016,08,13,02,42,20.30
2016,08,13,02,43,20.30
2016,08,13,02,44,20.40
2016,08,13,02,45,20.40
2016,08,13,02,46,20.40
2016,08,13,02,47,20.30
2016,08,13,02,48,20.30
2016,08,13,02,49,20.30
2016,08,13,02,50,20.30
2016,08,13,02,51,20.30
2016,08,13,02,52,20.30
2016,08,13,02,53,20.30
2016,08,13,02,54,20.30
2016,08,13,02,55,20.30
2016,08,13,02,56,20.30
2016,08,13,02,57,20.30
2016,08,13,02,58,20.30
2016,08,13,02,59,20.20
2016,08,13,03,00,20.20
2016,08,13,03,01,20.20
2016,08,13,03,02,20.20
2016,08,13,03,03,20.10
2016,08,13,03,04,20.10
2016,08,13,03,05,20.10
2016,08,13,03,06,20.10
2016,08,13,03,07,20.00
2016,08,13,03,08,20.00
2016,08,13,03,09,20.00
2016,08,13,03,10,19.90
2016,08,13,03,11,19.90
2016,08,13,03,12,19.90
2016,08,13,03,13,19.90
2016,08,13,03,14,19.90
2016,08,13,03,15,19.80
2016,08,13,03,16,19.90
2016,08,13,03,17,19.80
2016,08,13,03,18,19.80
2016,08,13,03,19,19.80
2016,08,13,03,20,19.80
2016,08,13,03,21,19.80
2016,08,13,03,22,19.90
2016,08,13,03,23,19.90
2016,08,13,03,24,19.90
2016,08,13,03,25,19.80
2016,08,13,03,26,19.80
2016,08,13,03,27,19.80
2016,08,13,03,28,19.80
2016,08,13,03,29,19.80
2016,08,13,03,30,19.80
2016,08,13,03,31,19.80
2016,08,13,03,32,19.80
2016,08,13,03,33,19.80
2016,08,13,03,34,19.80
2016,08,13,03,35,19.80
2016,08,13,03,36,19.80
2016,08,13,03,37,19.80
2016,08,13,03,38,19.80
2016,08,13,03,39,19.70
2016,08,13,03,40,19.70
2016,08,13,03,41,19.70
2016,08,13,03,42,19.70
2016,08,13,03,43,19.70
2016,08,13,03,44,19.70
2016,08,13,03,45,19.70
2016,08,13,03,46,19.70
2016,08,13,03,47,19.70
2016,08,13,03,48,19.70
2016,08,13,03,49,19.70
2016,08,13,03,50,19.70
2016,08,13,03,51,19.70
2016,08,13,03,52,19.70
2016,08,13,03,53,19.60
2016,08,13,03,54,19.60
2016,08,13,03,55,19.60
2016,08,13,03,56,19.60
2016,08,13,03,57,19.60
2016,08,13,03,58,19.60
2016,08,13,03,59,19.60
2016,08,13,04,00,19.50
2016,08,13,04,01,19.50
2016,08,13,04,02,19.50
2016,08,13,04,03,19.50
2016,08,13,04,04,19.40
2016,08,13,04,05,19.40
2016,08,13,04,06,19.40
2016,08,13,04,07,19.40
2016,08,13,04,08,19.40
2016,08,13,04,09,19.40
2016,08,13,04,10,19.40
2016,08,13,04,11,19.40
2016,08,13,04,12,19.50
2016,08,13,04,13,19.50
2016,08,13,04,14,19.40
2016,08,13,04,15,19.50
2016,08,13,04,16,19.50
2016,08,13,04,17,19.50
2016,08,13,04,18,19.60
2016,08,13,04,19,19.60
2016,08,13,04,20,19.50
2016,08,13,04,21,19.50
2016,08,13,04,22,19.50
2016,08,13,04,23,19.50
2016,08,13,04,24,19.50
2016,08,13,04,25,19.50
2016,08,13,04,26,19.50
2016,08,13,04,27,19.50
2016,08,13,04,28,19.50
2016,08,13,04,29,19.50
2016,08,13,04,30,19.50
2016,08,13,04,31,19.40
2016,08,13,04,32,19.40
2016,08,13,04,33,19.40
2016,08,13,04,34,19.40
2016,08,13,04,35,19.40
2016,08,13,04,36,19.40
2016,08,13,04,37,19.40
2016,08,13,04,38,19.40
2016,08,13,04,39,19.40
2016,08,13,04,40,19.40
2016,08,13,04,41,19.40
2016,08,13,04,42,19.40
2016,08,13,04,43,19.40
2016,08,13,04,44,19.40
2016,08,13,04,45,19.40
2016,08,13,04,46,19.40
2016,08,13,04,47,19.40
2016,08,13,04,48,19.40
2016,08,13,04,49,19.40
2016,08,13,04,50,19.40
2016,08,13,04,51,19.40
2016,08,13,04,52,19.40
2016,08,13,04,53,19.40
2016,08,13,04,54,19.40
2016,08,13,04,55,19.40
2016,08,13,04,56,19.40
2016,08,13,04,57,19.30
2016,08,13,04,58,19.30
2016,08,13,04,59,19.30
2016,08,13,05,00,19.30
2016,08,13,05,01,19.20
2016,08,13,05,02,19.20
2016,08,13,05,03,19.20
2016,08,13,05,04,19.20
2016,08,13,05,05,19.20
2016,08,13,05,06,19.20
2016,08,13,05,07,19.20
2016,08,13,05,08,19.10
2016,08,13,05,09,19.10
2016,08,13,05,10,19.10
2016,08,13,05,11,19.00
2016,08,13,05,12,19.00
2016,08,13,05,13,19.00
2016,08,13,05,14,19.00
2016,08,13,05,15,19.00
2016,08,13,05,16,19.00
2016,08,13,05,17,18.90
2016,08,13,05,18,18.90
2016,08,13,05,19,18.90
2016,08,13,05,20,18.90
2016,08,13,05,21,18.90
2016,08,13,05,22,18.90
2016,08,13,05,23,18.90
2016,08,13,05,24,18.90
2016,08,13,05,25,18.90
2016,08,13,05,26,18.80
2016,08,13,05,27,18.80
2016,08,13,05,28,18.80
2016,08,13,05,29,18.80
2016,08,13,05,30,18.80
2016,08,13,05,31,18.80
2016,08,13,05,32,18.80
2016,08,13,05,33,18.80
2016,08,13,05,34,18.80
2016,08,13,05,35,18.80
2016,08,13,05,36,18.80
2016,08,13,05,37,18.80
2016,08,13,05,38,18.80
2016,08,13,05,39,18.80
2016,08,13,05,40,18.80
2016,08,13,05,41,18.80
2016,08,13,05,42,18.80
2016,08,13,05,43,18.80
2016,08,13,05,44,18.80
2016,08,13,05,45,18.80
2016,08,13,05,46,18.90
2016,08,13,05,47,18.80
2016,08,13,05,48,18.80
2016,08,13,05,49,18.80
2016,08,13,05,50,18.80
2016,08,13,05,51,18.80
2016,08,13,05,52,18.80
2016,08,13,05,53,18.80
2016,08,13,05,54,18.80
2016,08,13,05,55,18.80
2016,08,13,05,56,18.80
2016,08,13,05,57,18.80
2016,08,13,05,58,18.80
2016,08,13,05,59,18.80
2016,08,13,06,00,18.70
2016,08,13,06,01,18.70
2016,08,13,06,02,18.60
2016,08,13,06,03,18.60
2016,08,13,06,04,18.60
2016,08,13,06,05,18.60
2016,08,13,06,06,18.60
2016,08,13,06,07,18.60
2016,08,13,06,08,18.60
2016,08,13,06,09,18.60
2016,08,13,06,10,18.60
2016,08,13,06,11,18.60
2016,08,13,06,12,18.60
2016,08,13,06,13,18.60
2016,08,13,06,14,18.50
2016,08,13,06,15,18.50
2016,08,13,06,16,18.50
2016,08,13,06,17,18.40
2016,08,13,06,18,18.40
2016,08,13,06,19,18.40
2016,08,13,06,20,18.40
2016,08,13,06,21,18.40
2016,08,13,06,22,18.50
2016,08,13,06,23,18.40
2016,08,13,06,24,18.40
2016,08,13,06,25,18.40
2016,08,13,06,26,18.40
2016,08,13,06,27,18.40
2016,08,13,06,28,18.40
2016,08,13,06,29,18.40
2016,08,13,06,30,18.40
2016,08,13,06,31,18.40
2016,08,13,06,32,18.40
2016,08,13,06,33,18.40
2016,08,13,06,34,18.30
2016,08,13,06,35,18.30
2016,08,13,06,36,18.30
2016,08,13,06,37,18.30
2016,08,13,06,38,18.30
2016,08,13,06,39,18.30
2016,08,13,06,40,18.30
2016,08,13,06,41,18.30
2016,08,13,06,42,18.30
2016,08,13,06,43,18.30
2016,08,13,06,44,18.30
2016,08,13,06,45,18.30
2016,08,13,06,46,18.30
2016,08,13,06,47,18.30
2016,08,13,06,48,18.30
2016,08,13,06,49,18.30
2016,08,13,06,50,18.30
2016,08,13,06,51,18.30
2016,08,13,06,52,18.30
2016,08,13,06,53,18.20
2016,08,13,06,54,18.20
2016,08,13,06,55,18.20
2016,08,13,06,56,18.20
2016,08,13,06,57,18.20
2016,08,13,06,58,18.20
2016,08,13,06,59,18.20
2016,08,13,07,00,18.20
2016,08,13,07,01,18.20
2016,08,13,07,02,18.20
2016,08,13,07,03,18.20
2016,08,13,07,04,18.20
2016,08,13,07,05,18.20
2016,08,13,07,06,18.20
2016,08,13,07,07,18.20
2016,08,13,07,08,18.10
2016,08,13,07,09,18.10
2016,08,13,07,10,18.10
2016,08,13,07,11,18.10
2016,08,13,07,12,18.10
2016,08,13,07,13,18.00
2016,08,13,07,14,18.00
2016,08,13,07,15,18.00
2016,08,13,07,16,17.90
2016,08,13,07,17,17.90
2016,08,13,07,18,17.90
2016,08,13,07,19,17.90
2016,08,13,07,20,17.90
2016,08,13,07,21,17.90
2016,08,13,07,22,17.90
2016,08,13,07,23,17.80
2016,08,13,07,24,17.80
2016,08,13,07,25,17.80
2016,08,13,07,26,17.80
2016,08,13,07,27,17.70
2016,08,13,07,28,17.70
2016,08,13,07,29,17.70
2016,08,13,07,30,17.70
2016,08,13,07,31,17.70
2016,08,13,07,32,17.70
2016,08,13,07,33,17.60
2016,08,13,07,34,17.60
2016,08,13,07,35,17.60
2016,08,13,07,36,17.60
2016,08,13,07,37,17.60
2016,08,13,07,38,17.60
2016,08,13,07,39,17.60
2016,08,13,07,40,17.50
2016,08,13,07,41,17.50
2016,08,13,07,42,17.50
2016,08,13,07,43,17.50
2016,08,13,07,44,17.50
2016,08,13,07,45,17.40
2016,08,13,07,46,17.40
2016,08,13,07,47,17.40
2016,08,13,07,48,17.40
2016,08,13,07,49,17.40
2016,08,13,07,50,17.40
2016,08,13,07,51,17.40
2016,08,13,07,52,17.40
2016,08,13,07,53,17.40
2016,08,13,07,54,17.40
2016,08,13,07,55,17.40
2016,08,13,07,56,17.40
2016,08,13,07,57,17.40
2016,08,13,07,58,17.40
2016,08,13,07,59,17.40
2016,08,13,08,00,17.40
2016,08,13,08,01,17.40
2016,08,13,08,02,17.40
2016,08,13,08,03,17.50
2016,08,13,08,04,17.50
2016,08,13,08,05,17.50
2016,08,13,08,06,17.50
2016,08,13,08,07,17.50
2016,08,13,08,08,17.50
2016,08,13,08,09,17.50
2016,08,13,08,10,17.50
2016,08,13,08,11,17.50
2016,08,13,08,12,17.50
2016,08,13,08,13,17.50
2016,08,13,08,14,17.60
2016,08,13,08,15,17.60
2016,08,13,08,16,17.60
2016,08,13,08,17,17.60
2016,08,13,08,18,17.60
2016,08,13,08,19,17.60
2016,08,13,08,20,17.70
2016,08,13,08,21,17.70
2016,08,13,08,22,17.70
2016,08,13,08,23,17.70
2016,08,13,08,24,17.70
2016,08,13,08,25,17.60
2016,08,13,08,26,17.60
2016,08,13,08,27,17.60
2016,08,13,08,28,17.60
2016,08,13,08,29,17.60
2016,08,13,08,30,17.60
2016,08,13,08,31,17.60
2016,08,13,08,32,17.60
2016,08,13,08,33,17.50
2016,08,13,08,34,17.60
2016,08,13,08,35,17.60
2016,08,13,08,36,17.60
2016,08,13,08,37,17.60
2016,08,13,08,38,17.60
2016,08,13,08,39,17.60
2016,08,13,08,40,17.60
2016,08,13,08,41,17.60
2016,08,13,08,42,17.60
2016,08,13,08,43,17.60
2016,08,13,08,44,17.60
2016,08,13,08,45,17.70
2016,08,13,08,46,17.70
2016,08,13,08,47,17.70
2016,08,13,08,48,17.70
2016,08,13,08,49,17.70
2016,08,13,08,50,17.70
2016,08,13,08,51,17.80
2016,08,13,08,52,17.80
2016,08,13,08,53,17.80
2016,08,13,08,54,17.80
2016,08,13,08,55,17.80
2016,08,13,08,56,17.80
2016,08,13,08,57,17.80
2016,08,13,08,58,17.80
2016,08,13,08,59,17.80
2016,08,13,09,00,17.80
2016,08,13,09,01,17.80
2016,08,13,09,02,17.80
2016,08,13,09,03,17.80
2016,08,13,09,04,17.90
2016,08,13,09,05,17.90
2016,08,13,09,06,18.00
2016,08,13,09,07,18.00
2016,08,13,09,08,18.10
2016,08,13,09,09,18.10
2016,08,13,09,10,18.10
2016,08,13,09,11,18.10
2016,08,13,09,12,18.20
2016,08,13,09,13,18.20
2016,08,13,09,14,18.30
2016,08,13,09,15,18.30
2016,08,13,09,16,18.30
2016,08,13,09,17,18.30
2016,08,13,09,18,18.30
2016,08,13,09,19,18.30
2016,08,13,09,20,18.30
2016,08,13,09,21,18.40
2016,08,13,09,22,18.50
2016,08,13,09,23,18.60
2016,08,13,09,24,18.60
2016,08,13,09,25,18.70
2016,08,13,09,26,18.70
2016,08,13,09,27,18.70
2016,08,13,09,28,18.70
2016,08,13,09,29,18.70
2016,08,13,09,30,18.80
2016,08,13,09,31,18.80
2016,08,13,09,32,18.80
2016,08,13,09,33,18.80
2016,08,13,09,34,18.90
2016,08,13,09,35,18.90
2016,08,13,09,36,19.00
2016,08,13,09,37,19.10
2016,08,13,09,38,19.10
2016,08,13,09,39,19.20
2016,08,13,09,40,19.20
2016,08,13,09,41,19.20
2016,08,13,09,42,19.20
2016,08,13,09,43,19.20
2016,08,13,09,44,19.20
2016,08,13,09,45,19.20
2016,08,13,09,46,19.30
2016,08,13,09,47,19.30
2016,08,13,09,48,19.30
2016,08,13,09,49,19.30
2016,08,13,09,50,19.30
2016,08,13,09,51,19.30
2016,08,13,09,52,19.40
2016,08,13,09,53,19.40
2016,08,13,09,54,19.40
2016,08,13,09,55,19.40
2016,08,13,09,56,19.40
2016,08,13,09,57,19.50
2016,08,13,09,58,19.60
2016,08,13,09,59,19.70
2016,08,13,10,00,19.70
2016,08,13,10,01,19.70
2016,08,13,10,02,19.80
2016,08,13,10,03,19.80
2016,08,13,10,04,19.80
2016,08,13,10,05,19.90
2016,08,13,10,06,19.90
2016,08,13,10,07,20.00
2016,08,13,10,08,20.00
2016,08,13,10,09,20.10
2016,08,13,10,10,20.10
2016,08,13,10,11,20.20
2016,08,13,10,12,20.20
2016,08,13,10,13,20.20
2016,08,13,10,14,20.30
2016,08,13,10,15,20.30
2016,08,13,10,16,20.30
2016,08,13,10,17,20.30
2016,08,13,10,18,20.30
2016,08,13,10,19,20.40
2016,08,13,10,20,20.40
2016,08,13,10,21,20.40
2016,08,13,10,22,20.40
2016,08,13,10,23,20.50
2016,08,13,10,24,20.50
2016,08,13,10,25,20.60
2016,08,13,10,26,20.60
2016,08,13,10,27,20.70
2016,08,13,10,28,20.70
2016,08,13,10,29,20.80
2016,08,13,10,30,20.80
2016,08,13,10,31,20.90
2016,08,13,10,32,20.90
2016,08,13,10,33,21.00
2016,08,13,10,34,21.00
2016,08,13,10,35,21.00
2016,08,13,10,36,21.00
2016,08,13,10,37,21.10
2016,08,13,10,38,21.10
2016,08,13,10,39,21.10
2016,08,13,10,40,21.20
2016,08,13,10,41,21.20
2016,08,13,10,42,21.20
2016,08,13,10,43,21.30
2016,08,13,10,44,21.30
2016,08,13,10,45,21.30
2016,08,13,10,46,21.30
2016,08,13,10,47,21.30
2016,08,13,10,48,21.30
2016,08,13,10,49,21.40
2016,08,13,10,50,21.40
2016,08,13,10,51,21.40
2016,08,13,10,52,21.50
2016,08,13,10,53,21.50
2016,08,13,10,54,21.50
2016,08,13,10,55,21.60
2016,08,13,10,56,21.60
2016,08,13,10,57,21.60
2016,08,13,10,58,21.70
2016,08,13,10,59,21.70
2016,08,13,11,00,21.70
2016,08,13,11,01,21.80
2016,08,13,11,02,21.80
2016,08,13,11,03,21.90
2016,08,13,11,04,21.90
2016,08,13,11,05,21.90
2016,08,13,11,06,22.00
2016,08,13,11,07,22.10
2016,08,13,11,08,22.10
2016,08,13,11,09,22.10
2016,08,13,11,10,22.20
2016,08,13,11,11,22.20
2016,08,13,11,12,22.20
2016,08,13,11,13,22.30
2016,08,13,11,14,22.30
2016,08,13,11,15,22.40
2016,08,13,11,16,22.40
2016,08,13,11,17,22.50
2016,08,13,11,18,22.60
2016,08,13,11,19,22.60
2016,08,13,11,20,22.70
2016,08,13,11,21,22.80
2016,08,13,11,22,22.80
2016,08,13,11,23,22.80
2016,08,13,11,24,22.90
2016,08,13,11,25,22.90
2016,08,13,11,26,22.90
2016,08,13,11,27,23.00
2016,08,13,11,28,23.00
2016,08,13,11,29,23.00
2016,08,13,11,30,23.10
2016,08,13,11,31,23.10
2016,08,13,11,32,23.20
2016,08,13,11,33,23.30
2016,08,13,11,34,23.40
2016,08,13,11,35,23.40
2016,08,13,11,36,23.40
2016,08,13,11,37,23.40
2016,08,13,11,38,23.40
2016,08,13,11,39,23.40
2016,08,13,11,40,23.40
2016,08,13,11,41,23.40
2016,08,13,11,42,23.50
2016,08,13,11,43,23.60
2016,08,13,11,44,23.60
2016,08,13,11,45,23.60
2016,08,13,11,46,23.70
2016,08,13,11,47,23.70
2016,08,13,11,48,23.70
2016,08,13,11,49,23.70
2016,08,13,11,50,23.70
2016,08,13,11,51,23.80
2016,08,13,11,52,23.80
2016,08,13,11,53,23.90
2016,08,13,11,54,23.90
2016,08,13,11,55,24.00
2016,08,13,11,56,24.00
2016,08,13,11,57,24.10
2016,08,13,11,58,24.10
2016,08,13,11,59,24.10
2016,08,13,12,00,24.10
2016,08,13,12,01,24.20
2016,08,13,12,02,24.20
2016,08,13,12,03,24.30
2016,08,13,12,04,24.30
2016,08,13,12,05,24.40
2016,08,13,12,06,24.40
2016,08,13,12,07,24.40
2016,08,13,12,08,24.40
2016,08,13,12,09,24.50
2016,08,13,12,10,24.50
2016,08,13,12,11,24.60
2016,08,13,12,12,24.60
2016,08,13,12,13,24.60
2016,08,13,12,14,24.60
2016,08,13,12,15,24.60
2016,08,13,12,16,24.60
2016,08,13,12,17,24.60
2016,08,13,12,18,24.60
2016,08,13,12,19,24.60
2016,08,13,12,20,24.70
2016,08,13,12,21,24.70
2016,08,13,12,22,24.80
2016,08,13,12,23,24.90
2016,08,13,12,24,25.00
2016,08,13,12,25,25.00
2016,08,13,12,26,25.00
2016,08,13,12,27,25.10
2016,08,13,12,28,25.10
2016,08,13,12,29,25.10
2016,08,13,12,30,25.10
2016,08,13,12,31,25.10
2016,08,13,12,32,25.10
2016,08,13,12,33,25.10
2016,08,13,12,34,25.00
2016,08,13,12,35,24.90
2016,08,13,12,36,24.80
2016,08,13,12,37,24.80
2016,08,13,12,38,24.70
2016,08,13,12,39,24.70
2016,08,13,12,40,24.70
2016,08,13,12,41,24.70
2016,08,13,12,42,24.80
2016,08,13,12,43,24.80
2016,08,13,12,44,24.90
2016,08,13,12,45,24.90
2016,08,13,12,46,24.90
2016,08,13,12,47,25.00
2016,08,13,12,48,25.10
2016,08,13,12,49,25.20
2016,08,13,12,50,25.30
2016,08,13,12,51,25.40
2016,08,13,12,52,25.50
2016,08,13,12,53,25.60
2016,08,13,12,54,25.70
2016,08,13,12,55,25.80
2016,08,13,12,56,25.80
2016,08,13,12,57,25.90
2016,08,13,12,58,26.00
2016,08,13,12,59,26.10
2016,08,13,13,00,26.10
2016,08,13,13,01,26.20
2016,08,13,13,02,26.10
2016,08,13,13,03,26.20
2016,08,13,13,04,26.20
2016,08,13,13,05,26.30
2016,08,13,13,06,26.40
2016,08,13,13,07,26.40
2016,08,13,13,08,26.40
2016,08,13,13,09,26.50
2016,08,13,13,10,26.60
2016,08,13,13,11,26.70
2016,08,13,13,12,26.70
2016,08,13,13,13,26.80
2016,08,13,13,14,26.80
2016,08,13,13,15,26.90
2016,08,13,13,16,27.00
2016,08,13,13,17,27.00
2016,08,13,13,18,27.00
2016,08,13,13,19,27.00
2016,08,13,13,20,27.00
2016,08,13,13,21,27.00
2016,08,13,13,22,27.10
2016,08,13,13,23,27.20
2016,08,13,13,24,27.30
2016,08,13,13,25,27.30
2016,08,13,13,26,27.30
2016,08,13,13,27,27.30
2016,08,13,13,28,27.30
2016,08,13,13,29,27.20
2016,08,13,13,30,27.10
2016,08,13,13,31,26.90
2016,08,13,13,32,26.50
2016,08,13,13,33,26.10
2016,08,13,13,34,25.90
2016,08,13,13,35,25.80
2016,08,13,13,36,25.70
2016,08,13,13,37,25.60
2016,08,13,13,38,25.60
2016,08,13,13,39,25.60
2016,08,13,13,40,25.60
2016,08,13,13,41,25.60
2016,08,13,13,42,25.60
2016,08,13,13,43,25.50
2016,08,13,13,44,25.40
2016,08,13,13,45,25.40
2016,08,13,13,46,25.40
2016,08,13,13,47,25.30
2016,08,13,13,48,25.30
2016,08,13,13,49,25.30
2016,08,13,13,50,25.30
2016,08,13,13,51,25.30
2016,08,13,13,52,25.30
2016,08,13,13,53,25.30
2016,08,13,13,54,25.30
2016,08,13,13,55,25.30
2016,08,13,13,56,25.30
2016,08,13,13,57,25.30
2016,08,13,13,58,25.30
2016,08,13,13,59,25.30
2016,08,13,14,00,25.30
2016,08,13,14,01,25.30
2016,08,13,14,02,25.30
2016,08,13,14,03,25.30
2016,08,13,14,04,25.30
2016,08,13,14,05,25.30
2016,08,13,14,06,25.30
2016,08,13,14,07,25.20
2016,08,13,14,08,25.20
2016,08,13,14,09,25.20
2016,08,13,14,10,25.10
2016,08,13,14,11,25.10
2016,08,13,14,12,25.10
2016,08,13,14,13,25.20
2016,08,13,14,14,25.20
2016,08,13,14,15,25.20
2016,08,13,14,16,25.20
2016,08,13,14,17,25.10
2016,08,13,14,18,25.00
2016,08,13,14,19,25.00
2016,08,13,14,20,24.90
2016,08,13,14,21,24.80
2016,08,13,14,22,24.80
2016,08,13,14,23,24.80
2016,08,13,14,24,24.70
2016,08,13,14,25,24.70
2016,08,13,14,26,24.70
2016,08,13,14,27,24.60
2016,08,13,14,28,24.60
2016,08,13,14,29,24.60
2016,08,13,14,30,24.60
2016,08,13,14,31,24.60
2016,08,13,14,32,24.70
2016,08,13,14,33,24.70
2016,08,13,14,34,24.70
2016,08,13,14,35,24.70
2016,08,13,14,36,24.80
2016,08,13,14,37,24.80
2016,08,13,14,38,24.80
2016,08,13,14,39,24.80
2016,08,13,14,40,24.80
2016,08,13,14,41,24.80
2016,08,13,14,42,24.70
2016,08,13,14,43,24.60
2016,08,13,14,44,24.60
2016,08,13,14,45,24.60
2016,08,13,14,46,24.60
2016,08,13,14,47,24.60
2016,08,13,14,48,24.60
2016,08,13,14,49,24.70
2016,08,13,14,50,24.70
2016,08,13,14,51,24.70
2016,08,13,14,52,24.70
2016,08,13,14,53,24.70
2016,08,13,14,54,24.70
2016,08,13,14,55,24.70
2016,08,13,14,56,24.80
2016,08,13,14,57,24.80
2016,08,13,14,58,24.70
2016,08,13,14,59,24.60
2016,08,13,15,00,24.50
2016,08,13,15,01,24.40
2016,08,13,15,02,24.20
2016,08,13,15,03,24.10
2016,08,13,15,04,24.10
2016,08,13,15,05,24.10
2016,08,13,15,06,24.00
2016,08,13,15,07,24.00
2016,08,13,15,08,24.00
2016,08,13,15,09,24.00
2016,08,13,15,10,24.00
2016,08,13,15,11,23.90
2016,08,13,15,12,23.90
2016,08,13,15,13,23.90
2016,08,13,15,14,23.90
2016,08,13,15,15,24.00
2016,08,13,15,16,24.00
2016,08,13,15,17,24.00
2016,08,13,15,18,23.90
2016,08,13,15,19,24.00
2016,08,13,15,20,24.10
2016,08,13,15,21,24.10
2016,08,13,15,22,24.20
2016,08,13,15,23,24.30
2016,08,13,15,24,24.40
2016,08,13,15,25,24.40
2016,08,13,15,26,24.50
2016,08,13,15,27,24.60
2016,08,13,15,28,24.60
2016,08,13,15,29,24.60
2016,08,13,15,30,24.60
2016,08,13,15,31,24.70
2016,08,13,15,32,24.70
2016,08,13,15,33,24.70
2016,08,13,15,34,24.70
2016,08,13,15,35,24.70
2016,08,13,15,36,24.70
2016,08,13,15,37,24.70
2016,08,13,15,38,24.70
2016,08,13,15,39,24.60
2016,08,13,15,40,24.60
2016,08,13,15,41,24.50
2016,08,13,15,42,24.50
2016,08,13,15,43,24.40
2016,08,13,15,44,24.40
2016,08,13,15,45,24.40
2016,08,13,15,46,24.40
2016,08,13,15,47,24.40
2016,08,13,15,48,24.40
2016,08,13,15,49,24.40
2016,08,13,15,50,24.40
2016,08,13,15,51,24.40
2016,08,13,15,52,24.40
2016,08,13,15,53,24.40
2016,08,13,15,54,24.40
2016,08,13,15,55,24.40
2016,08,13,15,56,24.50
2016,08,13,15,57,24.50
2016,08,13,15,58,24.50
2016,08,13,15,59,24.60
2016,08,13,16,00,24.60
2016,08,13,16,01,24.70
2016,08,13,16,02,24.70
2016,08,13,16,03,24.70
2016,08,13,16,04,24.70
2016,08,13,16,05,24.60
2016,08,13,16,06,24.60
2016,08,13,16,07,24.60
2016,08,13,16,08,24.60
2016,08,13,16,09,24.60
2016,08,13,16,10,24.50
2016,08,13,16,11,24.50
2016,08,13,16,12,24.40
2016,08,13,16,13,24.40
2016,08,13,16,14,24.30
2016,08,13,16,15,24.30
2016,08,13,16,16,24.40
2016,08,13,16,17,24.40
2016,08,13,16,18,24.50
2016,08,13,16,19,24.50
2016,08,13,16,20,24.50
2016,08,13,16,21,24.50
2016,08,13,16,22,24.50
2016,08,13,16,23,24.50
2016,08,13,16,24,24.40
2016,08,13,16,25,24.30
2016,08,13,16,26,24.30
2016,08,13,16,27,24.20
2016,08,13,16,28,24.20
2016,08,13,16,29,24.20
2016,08,13,16,30,24.20
2016,08,13,16,31,24.20
2016,08,13,16,32,24.20
2016,08,13,16,33,24.20
2016,08,13,16,34,24.20
2016,08,13,16,35,24.10
2016,08,13,16,36,24.10
2016,08,13,16,37,24.10
2016,08,13,16,38,24.10
2016,08,13,16,39,24.10
2016,08,13,16,40,24.10
2016,08,13,16,41,24.10
2016,08,13,16,42,24.00
2016,08,13,16,43,24.00
2016,08,13,16,44,23.90
2016,08,13,16,45,23.90
2016,08,13,16,46,23.90
2016,08,13,16,47,23.90
2016,08,13,16,48,23.80
2016,08,13,16,49,23.60
2016,08,13,16,50,23.50
2016,08,13,16,51,23.40
2016,08,13,16,52,23.30
2016,08,13,16,53,23.20
2016,08,13,16,54,23.10
2016,08,13,16,55,23.10
2016,08,13,16,56,23.10
2016,08,13,16,57,23.10
2016,08,13,16,58,23.10
2016,08,13,16,59,23.10
2016,08,13,17,00,23.10
2016,08,13,17,01,23.10
2016,08,13,17,02,23.10
2016,08,13,17,03,23.00
2016,08,13,17,04,23.00
2016,08,13,17,05,23.00
2016,08,13,17,06,22.90
2016,08,13,17,07,22.90
2016,08,13,17,08,22.90
2016,08,13,17,09,22.90
2016,08,13,17,10,22.90
2016,08,13,17,11,22.90
2016,08,13,17,12,22.90
2016,08,13,17,13,22.90
2016,08,13,17,14,22.90
2016,08,13,17,15,22.90
2016,08,13,17,16,22.90
2016,08,13,17,17,22.90
2016,08,13,17,18,22.90
2016,08,13,17,19,22.90